Volver al catálogo

OPS 9442 (DSCS 2-12) DEB

ActivoMEO
NORAD 59990·DEBRIS·🇺🇸 United States

Lanzado Dec 14, 1978 desde Cape Canaveral Space Force Station

Loading…

Próximos Pases (próximas 24 horas)

TLE

ActualizadoSource: Space-Track

Época: Sep 14, 2026, 11:03 UTC

1 59990U 78113F   26257.46064606 -.00000107  00000-0  00000-0 0  9995
2 59990   8.2071 301.7316 0149696 128.4497 296.2588  0.98217853 45971

Sigue OPS 9442 (DSCS 2-12) DEB en tiempo real con AllMySat

Download on the App Store